Total_Precipitation_Accumulation
0.02 0.02 0.00 0.04 0.00 0.00 0.00 0.00 0.00 0.00 0.00 0.00 0.00 0.00 0.00 0.00 0.00 0.00 0.00 0.00 0.00 0.00 0.01 0.04 0.10 0.13 0.09 0.03 0.01 0.04 0.08 0.14 0.23 0.28 0.26 0.35 0.36 0.12 0.05 0.04 0.04 0.05 0.05 0.04 0.03 0.03 0.03 0.02 0.01
0.03 0.05 0.04 0.01 0.00 0.00 0.00 0.00 0.00 0.00 0.00 0.00 0.00 0.00 0.00 0.00 0.00 0.00 0.00 0.00 0.00 0.00 0.01 0.02 0.13 0.13 0.10 0.01 0.02 0.03 0.09 0.16 0.24 0.34 0.44 0.53 0.19 0.06 0.05 0.03 0.02 0.03 0.04 0.03 0.03 0.03 0.03 0.01 0.01
0.07 0.17 0.08 0.00 0.00 0.00 0.00 0.00 0.00 0.00 0.00 0.00 0.00 0.00 0.00 0.00 0.00 0.00 0.00 0.00 0.00 0.00 0.01 0.03 0.13 0.14 0.06 0.01 0.04 0.04 0.14 0.16 0.28 0.43 0.45 0.31 0.08 0.04 0.04 0.02 0.01 0.03 0.04 0.03 0.02 0.02 0.02 0.02 0.02
0.20 0.29 0.20 0.01 0.00 0.00 0.00 0.00 0.00 0.00 0.00 0.00 0.00 0.00 0.00 0.01 0.01 0.00 0.00 0.00 0.00 0.01 0.02 0.06 0.12 0.13 0.02 0.02 0.03 0.08 0.16 0.16 0.26 0.34 0.18 0.06 0.04 0.03 0.01 0.00 0.01 0.02 0.02 0.02 0.03 0.03 0.02 0.01 0.01
0.42 0.34 0.19 0.02 0.00 0.00 0.00 0.00 0.00 0.00 0.00 0.00 0.00 0.00 0.01 0.03 0.01 0.00 0.01 0.01 0.00 0.01 0.03 0.06 0.16 0.12 0.05 0.03 0.05 0.14 0.24 0.23 0.31 0.34 0.07 0.04 0.03 0.01 0.00 0.00 0.01 0.02 0.03 0.04 0.04 0.02 0.01 0.00 0.01
0.61 0.39 0.18 0.02 0.00 0.00 0.00 0.00 0.00 0.00 0.00 0.00 0.00 0.00 0.01 0.00 0.00 0.01 0.01 0.01 0.01 0.00 0.04 0.08 0.23 0.13 0.05 0.08 0.09 0.14 0.26 0.32 0.38 0.19 0.04 0.04 0.02 0.00 0.00 0.00 0.02 0.04 0.05 0.04 0.02 0.01 0.01 0.01 0.00
0.73 0.45 0.17 0.02 0.00 0.00 0.00 0.00 0.00 0.00 0.00 0.00 0.00 0.00 0.00 0.01 0.01 0.01 0.01 0.01 0.01 0.03 0.03 0.04 0.22 0.13 0.07 0.08 0.14 0.20 0.32 0.43 0.34 0.11 0.05 0.03 0.01 0.00 0.00 0.01 0.04 0.05 0.04 0.03 0.03 0.02 0.01 0.00 0.00
0.68 0.70 0.24 0.06 0.01 0.00 0.00 0.00 0.00 0.00 0.00 0.00 0.00 0.00 0.00 0.01 0.03 0.03 0.03 0.02 0.04 0.03 0.03 0.02 0.10 0.05 0.05 0.07 0.14 0.28 0.43 0.51 0.27 0.01 0.01 0.01 0.01 0.01 0.01 0.02 0.06 0.05 0.02 0.03 0.03 0.01 0.00 0.00 0.00
0.58 0.86 0.53 0.11 0.02 0.00 0.00 0.01 0.00 0.00 0.00 0.01 0.00 0.00 0.00 0.01 0.06 0.05 0.04 0.06 0.07 0.04 0.05 0.02 0.03 0.02 0.01 0.03 0.12 0.25 0.22 0.12 0.08 0.00 0.00 0.00 0.00 0.00 0.00 0.03 0.06 0.03 0.03 0.03 0.01 0.01 0.00 0.00 0.00
0.54 0.78 0.46 0.17 0.02 0.01 0.03 0.05 0.05 0.02 0.01 0.05 0.01 0.00 0.01 0.08 0.14 0.11 0.10 0.03 0.03 0.02 0.04 0.02 0.02 0.01 0.01 0.01 0.03 0.12 0.07 0.03 0.00 0.00 0.00 0.00 0.00 0.00 0.01 0.03 0.04 0.03 0.03 0.01 0.01 0.00 0.00 0.00 0.00
0.38 0.55 0.27 0.15 0.09 0.05 0.11 0.11 0.05 0.10 0.13 0.00 0.00 0.00 0.12 0.28 0.19 0.15 0.14 0.09 0.02 0.02 0.03 0.03 0.01 0.01 0.01 0.01 0.03 0.10 0.10 0.08 0.00 0.00 0.00 0.00 0.00 0.00 0.01 0.02 0.02 0.03 0.01 0.01 0.01 0.00 0.00 0.00 0.00
0.22 0.22 0.32 0.19 0.22 0.22 0.18 0.20 0.15 0.10 0.14 0.01 0.00 0.02 0.17 0.32 0.31 0.15 0.16 0.23 0.13 0.04 0.04 0.04 0.02 0.01 0.01 0.01 0.01 0.03 0.04 0.02 0.00 0.00 0.00 0.00 0.00 0.00 0.00 0.00 0.02 0.01 0.01 0.00 0.00 0.00 0.00 0.00 0.00
0.13 0.08 0.31 0.24 0.29 0.34 0.29 0.24 0.21 0.13 0.05 0.02 0.01 0.06 0.15 0.29 0.25 0.30 0.17 0.19 0.19 0.12 0.05 0.03 0.02 0.01 0.00 0.01 0.00 0.00 0.00 0.00 0.00 0.00 0.00 0.00 0.00 0.00 0.00 0.01 0.01 0.01 0.00 0.00 0.00 0.00 0.00 0.00 0.00
0.13 0.06 0.19 0.30 0.32 0.35 0.50 0.29 0.36 0.18 0.05 0.10 0.08 0.14 0.29 0.36 0.29 0.29 0.34 0.23 0.27 0.27 0.13 0.05 0.03 0.01 0.00 0.01 0.00 0.00 0.00 0.00 0.00 0.00 0.00 0.00 0.00 0.00 0.00 0.00 0.01 0.00 0.00 0.00 0.00 0.00 0.00 0.00 0.00
0.16 0.09 0.22 0.45 0.28 0.48 0.54 0.44 0.27 0.15 0.23 0.25 0.26 0.29 0.30 0.26 0.30 0.27 0.23 0.34 0.30 0.34 0.28 0.10 0.02 0.01 0.01 0.02 0.01 0.01 0.00 0.00 0.00 0.00 0.00 0.00 0.00 0.00 0.00 0.00 0.00 0.00 0.00 0.00 0.00 0.00 0.00 0.00 0.00
0.40 0.23 0.28 0.49 0.44 0.37 0.66 0.42 0.23 0.40 0.32 0.37 0.39 0.39 0.38 0.36 0.29 0.25 0.26 0.26 0.40 0.39 0.33 0.22 0.07 0.03 0.03 0.04 0.03 0.01 0.01 0.00 0.00 0.00 0.00 0.00 0.00 0.00 0.00 0.00 0.00 0.00 0.00 0.00 0.00 0.00 0.00 0.00 0.00
0.52 0.33 0.21 0.36 0.61 0.63 0.52 0.30 0.33 0.63 0.62 0.41 0.32 0.39 0.36 0.39 0.34 0.27 0.31 0.31 0.36 0.46 0.48 0.34 0.18 0.04 0.09 0.10 0.06 0.03 0.02 0.01 0.00 0.00 0.00 0.00 0.00 0.00 0.00 0.00 0.00 0.00 0.00 0.00 0.00 0.00 0.00 0.00 0.00
0.40 0.24 0.16 0.30 0.63 1.05 0.55 0.20 0.38 0.65 0.70 0.60 0.41 0.43 0.46 0.48 0.41 0.34 0.38 0.35 0.37 0.48 0.60 0.52 0.36 0.14 0.13 0.12 0.07 0.03 0.01 0.02 0.00 0.00 0.00 0.00 0.00 0.00 0.00 0.00 0.00 0.00 0.00 0.00 0.00 0.00 0.00 0.00 0.00
0.33 0.26 0.13 0.21 0.39 1.19 0.60 0.28 0.40 0.69 0.76 0.77 0.55 0.41 0.44 0.51 0.45 0.50 0.52 0.48 0.57 0.48 0.53 0.56 0.40 0.14 0.09 0.06 0.04 0.03 0.02 0.02 0.01 0.00 0.00 0.00 0.00 0.00 0.00 0.00 0.00 0.00 0.00 0.00 0.00 0.00 0.00 0.00 0.00
0.31 0.33 0.08 0.16 0.26 1.06 0.70 0.44 0.43 0.70 0.52 0.50 0.42 0.36 0.39 0.56 0.57 0.53 0.48 0.51 0.65 0.47 0.54 0.62 0.42 0.20 0.12 0.05 0.04 0.02 0.01 0.00 0.00 0.00 0.00 0.00 0.00 0.00 0.00 0.00 0.00 0.00 0.00 0.00 0.00 0.00 0.00 0.00 0.00
0.36 0.50 0.08 0.20 0.70 0.92 0.98 0.78 0.47 0.81 0.80 0.64 0.63 0.44 0.36 0.47 0.61 0.56 0.53 0.57 0.59 0.69 0.38 0.54 0.42 0.20 0.18 0.18 0.08 0.04 0.07 0.05 0.03 0.01 0.00 0.00 0.00 0.00 0.00 0.00 0.00 0.00 0.00 0.00 0.00 0.00 0.00 0.00 0.00
0.57 0.38 0.05 0.18 0.95 1.01 1.18 0.96 0.36 0.51 0.84 0.72 0.58 0.59 0.34 0.33 0.63 0.64 0.55 0.59 0.51 0.77 0.57 0.42 0.42 0.25 0.24 0.19 0.07 0.04 0.09 0.07 0.03 0.02 0.00 0.00 0.00 0.00 0.00 0.00 0.00 0.00 0.00 0.00 0.00 0.00 0.00 0.00 0.00
1.10 0.33 0.12 0.19 0.53 0.81 0.77 0.87 0.24 0.44 0.66 0.62 0.62 0.51 0.46 0.27 0.58 0.58 0.46 0.87 0.77 0.65 0.77 0.47 0.35 0.29 0.22 0.27 0.15 0.07 0.11 0.14 0.10 0.06 0.02 0.00 0.00 0.00 0.00 0.00 0.00 0.00 0.00 0.00 0.00 0.00 0.00 0.00 0.00
0.89 0.36 0.25 0.22 0.40 0.90 0.47 0.63 0.21 0.26 0.35 0.34 0.57 0.50 0.61 0.39 0.64 0.70 0.37 0.97 0.85 0.82 0.60 0.50 0.25 0.25 0.24 0.18 0.21 0.21 0.10 0.08 0.06 0.03 0.01 0.00 0.00 0.00 0.00 0.00 0.00 0.00 0.00 0.00 0.00 0.00 0.00 0.00 0.00
0.37 0.43 0.51 0.34 0.39 0.39 0.09 0.28 0.14 0.08 0.19 0.10 0.27 0.42 0.59 0.55 0.74 0.85 0.67 0.86 0.80 0.80 0.54 0.36 0.15 0.21 0.22 0.21 0.14 0.16 0.24 0.19 0.14 0.07 0.02 0.00 0.00 0.00 0.00 0.00 0.00 0.00 0.00 0.00 0.00 0.00 0.00 0.00 0.00
0.03 0.07 0.29 0.13 0.05 0.04 0.02 0.05 0.02 0.01 0.16 0.07 0.13 0.24 0.40 0.68 0.72 0.68 0.82 0.67 0.81 0.70 0.42 0.27 0.12 0.14 0.16 0.19 0.19 0.20 0.27 0.31 0.23 0.17 0.09 0.03 0.01 0.00 0.00 0.00 0.00 0.00 0.00 0.00 0.00 0.00 0.00 0.00 0.00
0.00 0.01 0.02 0.02 0.01 0.02 0.01 0.00 0.01 0.00 0.23 0.14 0.14 0.15 0.18 0.44 0.61 0.64 0.64 0.83 0.87 0.87 0.43 0.27 0.16 0.16 0.14 0.18 0.24 0.24 0.28 0.31 0.35 0.27 0.20 0.17 0.08 0.02 0.00 0.00 0.00 0.00 0.00 0.00 0.00 0.00 0.00 0.00 0.00
0.00 0.00 0.02 0.04 0.04 0.03 0.00 0.00 0.00 0.00 0.09 0.23 0.17 0.16 0.06 0.14 0.41 0.56 0.62 1.20 1.06 0.88 0.44 0.24 0.18 0.15 0.15 0.20 0.24 0.23 0.31 0.48 0.57 0.60 0.39 0.29 0.27 0.16 0.06 0.01 0.00 0.00 0.00 0.00 0.00 0.01 0.00 0.00 0.00
0.00 0.02 0.03 0.02 0.02 0.07 0.02 0.01 0.00 0.00 0.00 0.13 0.21 0.36 0.13 0.10 0.19 0.35 0.49 0.88 1.12 0.70 0.22 0.17 0.13 0.15 0.20 0.18 0.18 0.17 0.23 0.30 0.50 0.56 0.40 0.28 0.24 0.29 0.23 0.10 0.03 0.01 0.00 0.00 0.00 0.00 0.01 0.00 0.01
0.00 0.01 0.04 0.09 0.06 0.02 0.02 0.01 0.00 0.00 0.00 0.00 0.14 0.30 0.30 0.22 0.22 0.29 0.36 0.54 0.75 0.72 0.27 0.17 0.11 0.10 0.14 0.15 0.19 0.19 0.18 0.20 0.21 0.29 0.33 0.34 0.22 0.15 0.16 0.19 0.15 0.08 0.05 0.03 0.01 0.01 0.02 0.01 0.02